Wind_Speed
24 24 24 25 26 27 26 25 23 23 22 24 24 22 23 24 27 30 33 35 38 41 42 44 47 50 54 59 62 67 70 72 77 79 79 85 87 92 97 96 96 89 77 75 75
24 26 27 28 28 28 27 25 23 24 24 25 24 24 24 28 32 34 36 39 41 44 47 50 54 57 61 65 67 58 59 71 81 85 87 88 86 90 92 95 99 94 87 84 75
25 26 28 28 28 27 26 25 24 25 27 27 26 26 28 30 32 34 36 42 46 49 51 55 59 65 68 70 71 69 62 59 75 87 92 94 90 94 87 90 102 98 92 86 83
23 24 27 30 30 29 25 21 25 29 31 29 27 28 31 31 32 34 38 43 46 51 55 59 62 67 71 74 74 75 72 67 69 81 90 98 101 98 90 90 96 97 97 87 83
21 25 28 29 29 28 27 29 33 33 30 28 31 34 34 35 39 43 46 49 50 53 57 61 66 71 73 76 75 72 69 69 72 79 92 98 102 103 95 97 95 95 98 95 85
22 25 27 26 28 30 27 26 25 24 26 29 33 38 41 45 47 49 52 56 59 59 60 65 69 72 73 72 69 68 67 66 70 80 92 97 101 105 101 105 103 95 98 97 97
25 28 28 29 30 29 32 32 32 30 30 34 39 43 47 51 53 55 57 62 65 64 66 69 73 75 73 73 69 70 67 66 67 80 94 96 104 100 109 113 111 100 96 97 95
27 27 29 31 31 29 29 30 33 35 37 40 43 45 49 54 58 63 65 68 71 71 72 73 74 74 76 73 72 71 67 64 68 82 97 104 104 109 112 113 115 106 96 95 95
27 30 32 34 34 36 38 36 34 35 37 40 45 48 55 60 63 67 71 74 76 76 79 79 80 78 76 75 74 70 65 61 68 79 93 107 109 115 119 117 119 109 99 94 94
30 33 35 38 39 40 39 36 34 38 43 45 50 53 63 69 69 73 75 76 79 77 75 75 79 77 75 74 71 68 61 57 65 75 88 105 109 122 125 120 122 112 106 95 95
33 35 38 42 43 40 38 39 42 47 52 54 56 63 69 70 71 73 76 77 77 79 78 75 72 72 69 66 67 65 57 52 60 72 82 98 108 119 132 127 123 115 110 100 97
36 40 44 45 45 45 43 45 49 52 54 61 69 74 72 68 69 73 76 79 80 79 76 71 67 61 59 60 60 58 49 49 58 65 74 92 105 116 129 131 128 120 114 107 101
42 44 45 46 47 47 46 51 54 56 61 69 76 75 68 67 70 74 72 76 72 72 68 62 60 55 53 53 53 54 47 44 49 60 65 85 96 112 122 131 130 123 117 113 103
47 49 49 49 49 50 50 54 58 63 69 77 75 72 67 68 70 69 60 62 66 65 60 55 51 51 51 49 45 45 36 37 44 56 57 67 81 98 112 124 127 125 118 117 111
50 51 51 53 53 54 57 61 64 70 77 81 74 70 69 72 66 66 66 63 62 61 52 48 47 48 48 47 39 35 36 35 38 44 44 59 61 91 104 118 119 127 121 118 117
52 53 55 56 58 60 61 65 73 76 83 83 77 79 74 81 71 67 67 62 57 54 51 43 45 46 46 43 35 30 32 31 33 37 39 56 52 80 94 110 116 127 129 123 121
53 55 57 61 64 64 66 71 78 81 82 79 80 77 81 79 79 66 66 62 60 49 48 49 44 45 45 43 34 27 24 26 28 28 38 43 52 71 90 111 118 125 132 127 122
58 57 61 68 69 70 72 77 82 80 80 77 81 79 84 81 80 70 65 63 57 48 41 37 42 45 45 43 37 28 23 21 24 25 34 38 54 66 83 103 113 120 130 127 121
60 61 63 69 73 76 79 84 83 79 82 76 82 81 92 86 75 69 66 61 55 51 43 36 37 43 43 43 38 31 21 18 19 23 29 31 47 57 74 90 103 113 124 124 122
61 63 67 72 76 81 84 87 85 82 82 83 87 89 92 79 79 67 65 63 53 45 42 41 39 40 41 41 39 35 27 18 16 19 22 28 42 55 67 79 92 104 118 119 121
62 65 70 73 79 82 85 86 91 87 86 87 89 92 94 84 81 67 61 58 57 46 40 40 38 36 39 40 39 33 25 19 15 15 18 26 37 48 60 74 84 95 108 110 114
66 68 71 76 80 83 88 89 92 93 93 93 92 95 93 85 73 66 58 55 54 45 41 42 41 39 37 37 34 31 24 15 11 11 19 25 36 45 51 57 71 82 98 101 106
69 73 74 75 78 84 90 90 92 93 96 96 96 95 95 78 70 63 55 55 53 50 42 42 40 41 39 35 32 29 26 18 11 5 20 28 34 40 44 51 62 70 82 84 98
66 72 79 80 83 84 90 94 93 96 96 97 98 97 89 77 66 61 55 55 52 51 46 42 41 38 34 32 29 28 27 26 16 9 10 23 29 37 41 47 55 63 69 77 90
71 77 83 85 86 90 92 94 95 94 94 95 92 87 82 69 61 57 58 55 53 50 49 42 41 38 32 31 28 22 24 24 23 13 5 9 20 27 36 42 49 56 62 73 86
78 81 89 89 89 91 92 93 93 93 91 89 82 74 74 67 63 50 53 51 47 48 48 45 38 39 32 32 26 22 23 23 24 21 9 13 16 21 32 40 50 56 63 74 92
85 83 85 93 92 92 92 93 92 86 86 83 68 64 64 64 62 55 55 50 48 46 46 44 38 35 32 30 25 18 22 25 27 24 17 18 17 22 32 42 51 59 65 77 100
Wind_Direction
317 318 317 314 310 307 304 303 296 296 296 293 286 273 273 275 276 275 272 270 268 268 266 265 265 265 265 264 259 248 241 238 234 232 231 234 233 233 231 230 233 231 226 217 217
319 317 315 314 312 311 306 299 293 293 295 292 278 268 276 280 281 280 273 270 272 270 268 267 266 266 264 266 266 258 248 242 239 235 232 235 232 235 233 229 230 230 227 221 214
319 319 322 323 318 313 307 299 296 295 292 288 275 271 277 282 283 280 277 275 274 272 269 268 266 265 265 266 267 270 269 251 242 237 234 233 231 236 233 232 230 228 227 224 219
325 328 329 326 317 309 303 297 296 300 294 287 275 273 279 282 282 283 284 280 279 275 273 271 271 270 269 270 270 269 272 266 251 239 234 231 231 230 230 234 233 227 226 220 220
328 334 335 329 330 320 303 296 295 296 291 281 278 279 282 284 286 288 287 287 286 282 277 274 274 275 273 273 273 272 268 263 251 237 232 229 230 228 227 230 232 227 224 219 215
326 332 337 334 334 332 327 320 306 292 281 278 282 286 290 290 290 292 291 290 291 290 286 283 281 280 279 279 280 279 276 266 252 236 230 226 227 228 226 228 229 223 221 219 216
324 328 329 330 328 321 321 320 317 306 297 293 291 292 295 296 296 294 292 294 293 292 291 288 284 282 287 286 287 286 281 270 250 235 226 222 223 224 225 226 227 223 220 217 215
323 326 326 328 329 323 316 308 304 299 295 297 299 300 300 298 297 298 297 298 296 294 292 291 290 291 289 290 290 287 283 269 251 236 222 218 219 220 224 225 228 223 219 217 213
323 323 322 321 323 324 321 315 312 312 311 307 305 304 304 302 300 300 296 294 296 296 294 293 291 291 290 287 288 286 282 265 247 236 227 217 214 219 221 221 225 223 219 216 211
322 321 319 320 322 322 321 316 311 310 310 310 310 308 312 311 304 298 298 293 292 292 289 288 291 291 290 288 289 288 281 263 245 236 228 221 215 217 220 219 221 220 219 214 210
318 316 317 322 321 321 318 315 313 314 315 316 316 320 321 317 316 311 306 301 299 301 300 297 296 293 292 290 291 289 280 262 245 237 228 223 215 217 219 217 219 218 217 212 209
316 317 318 319 319 317 317 317 314 315 319 321 328 326 323 323 323 314 307 305 304 304 302 299 297 295 294 295 293 288 277 259 245 237 228 225 217 218 220 216 217 215 214 211 207
314 316 317 317 316 315 315 315 315 318 324 329 330 328 327 322 320 323 313 306 303 300 300 301 300 298 297 298 296 290 278 257 246 243 230 227 217 216 219 218 215 214 212 210 206
314 316 315 314 314 314 315 320 323 325 329 331 332 330 326 322 323 320 313 312 309 306 309 307 302 303 307 304 300 293 284 265 243 241 238 229 221 218 217 220 216 216 210 210 205
313 314 313 313 312 313 317 322 325 329 332 333 332 332 334 331 321 324 326 324 318 315 312 309 312 313 312 314 310 296 288 276 254 246 237 232 215 217 213 218 215 217 210 209 206
311 312 312 312 312 316 323 325 329 332 334 333 337 337 342 345 338 334 326 325 324 318 314 316 317 316 318 320 314 311 295 279 260 244 229 228 214 216 210 215 211 213 212 207 207
310 309 311 311 313 321 324 328 333 333 333 333 337 343 342 341 341 332 331 334 330 324 317 317 323 323 324 326 324 316 299 282 262 249 231 221 214 215 209 215 212 210 213 207 206
309 309 310 311 318 322 325 328 332 334 333 334 339 343 343 344 341 334 336 336 332 327 313 317 329 327 328 333 329 323 308 287 272 245 227 212 211 210 210 213 213 211 213 208 206
310 310 310 313 318 321 325 328 331 336 333 336 337 341 343 343 343 337 334 338 334 329 320 325 331 328 329 334 336 333 321 297 274 250 232 214 211 210 213 215 213 210 213 209 206
308 309 310 314 316 319 323 327 330 333 333 335 336 338 338 342 342 337 338 339 337 326 323 325 332 334 331 332 332 338 334 314 278 248 234 210 211 210 210 213 213 212 215 207 205
307 308 310 313 314 316 321 324 328 331 333 335 334 336 338 340 341 336 339 338 341 331 325 326 331 337 332 334 337 337 338 323 293 254 220 205 211 214 211 211 212 212 215 210 203
307 308 310 311 311 315 318 322 326 329 331 332 334 337 340 339 340 335 339 341 341 338 329 330 334 336 333 336 342 339 341 332 303 277 222 202 204 211 211 210 216 214 215 211 200
305 306 305 307 308 313 318 322 325 326 328 329 330 333 336 340 339 337 340 343 341 341 334 332 337 336 334 337 339 338 346 347 325 269 244 215 205 208 208 205 211 211 216 209 199
300 302 305 307 311 313 318 321 323 325 326 328 328 330 335 339 338 338 340 344 345 342 336 334 336 333 328 330 337 332 343 343 331 277 250 230 208 206 208 204 204 208 206 204 197
300 304 305 307 312 316 318 319 321 323 326 328 329 331 335 337 338 339 339 344 346 341 339 335 331 330 328 328 327 332 340 343 336 316 247 244 217 212 207 203 201 201 198 196 191
300 305 307 309 311 315 318 319 321 320 322 327 328 329 333 335 335 337 340 341 343 341 341 333 329 329 325 323 318 328 327 329 325 319 282 224 210 210 209 200 193 193 190 189 186
304 306 307 311 313 314 317 318 320 322 322 326 324 325 330 331 331 335 339 338 340 342 340 339 330 328 322 319 313 315 312 317 317 315 296 254 219 206 205 199 194 188 186 183 181
Height
10855 10852 10849 10846 10842 10838 10835 10832 10829 10826 10823 10821 10819 10818 10816 10815 10814 10812 10811 10809 10807 10805 10805 10804 10802 10800 10800 10799 10802 10808 10815 10820 10819 10820 10820 10812 10821 10824 10838 10852 10857 10872 10891 10897 10904
10851 10847 10843 10840 10836 10833 10829 10826 10823 10820 10817 10814 10812 10810 10810 10808 10805 10804 10802 10799 10797 10795 10793 10791 10788 10786 10784 10783 10784 10791 10799 10800 10800 10801 10803 10801 10810 10806 10820 10836 10839 10857 10870 10883 10894
10846 10842 10838 10834 10831 10827 10823 10820 10817 10815 10811 10808 10806 10804 10803 10800 10797 10794 10793 10789 10786 10783 10780 10777 10773 10769 10765 10765 10768 10769 10773 10777 10774 10776 10782 10783 10796 10785 10810 10821 10817 10840 10856 10870 10886
10841 10838 10834 10830 10825 10822 10819 10815 10812 10810 10806 10802 10799 10797 10795 10792 10790 10786 10782 10777 10773 10769 10765 10759 10754 10750 10746 10745 10747 10748 10746 10748 10745 10752 10757 10758 10763 10774 10792 10798 10800 10826 10838 10859 10872
10837 10834 10830 10825 10820 10816 10813 10810 10806 10803 10800 10796 10792 10789 10788 10785 10780 10775 10768 10762 10758 10753 10747 10739 10733 10727 10725 10722 10721 10719 10719 10716 10713 10719 10722 10731 10741 10752 10777 10773 10780 10803 10820 10842 10854
10833 10830 10826 10821 10816 10812 10808 10803 10798 10795 10792 10789 10786 10782 10777 10772 10768 10762 10756 10748 10740 10734 10726 10718 10710 10704 10698 10695 10694 10689 10687 10685 10680 10684 10689 10709 10720 10733 10754 10746 10753 10778 10797 10818 10836
10830 10827 10822 10818 10813 10809 10805 10800 10795 10791 10789 10785 10779 10773 10767 10760 10753 10747 10740 10730 10720 10714 10706 10698 10688 10680 10675 10668 10666 10660 10655 10650 10648 10649 10657 10683 10697 10722 10716 10717 10725 10756 10779 10797 10816
10826 10822 10818 10813 10809 10804 10799 10795 10789 10784 10779 10775 10771 10765 10757 10749 10738 10728 10718 10709 10700 10692 10686 10676 10666 10658 10650 10643 10636 10632 10626 10620 10616 10616 10625 10643 10673 10684 10689 10702 10706 10735 10763 10779 10799
10821 10818 10813 10808 10803 10798 10794 10789 10784 10778 10773 10767 10760 10753 10745 10734 10723 10712 10701 10690 10680 10670 10659 10648 10640 10634 10627 10618 10611 10606 10599 10592 10585 10586 10601 10614 10645 10654 10652 10675 10681 10717 10745 10764 10782
10817 10812 10806 10801 10797 10791 10786 10781 10777 10771 10764 10759 10750 10742 10728 10713 10706 10692 10680 10671 10659 10653 10640 10625 10614 10606 10600 10593 10584 10576 10571 10565 10559 10560 10572 10587 10618 10617 10627 10651 10660 10697 10721 10748 10765
10811 10806 10800 10795 10791 10785 10779 10773 10767 10761 10754 10746 10738 10726 10713 10697 10681 10663 10649 10637 10626 10617 10606 10601 10592 10579 10576 10568 10557 10548 10541 10539 10534 10535 10548 10557 10587 10587 10590 10621 10644 10677 10699 10727 10746
10805 10800 10794 10789 10782 10776 10771 10765 10759 10750 10743 10731 10721 10707 10691 10677 10662 10647 10633 10616 10607 10595 10584 10577 10568 10560 10550 10543 10535 10522 10517 10513 10510 10511 10524 10528 10556 10559 10567 10596 10619 10649 10680 10704 10723
10797 10793 10788 10782 10775 10768 10763 10756 10749 10741 10732 10718 10706 10691 10676 10661 10644 10630 10616 10599 10592 10578 10567 10560 10548 10539 10534 10522 10512 10497 10494 10493 10495 10490 10500 10500 10529 10536 10554 10569 10599 10624 10661 10683 10704
10788 10783 10779 10773 10766 10759 10753 10745 10737 10728 10718 10706 10693 10681 10666 10647 10631 10618 10604 10588 10569 10560 10549 10541 10531 10522 10513 10503 10494 10482 10479 10475 10475 10472 10479 10485 10506 10524 10536 10550 10587 10607 10643 10664 10687
10780 10774 10767 10761 10756 10750 10742 10734 10725 10715 10702 10689 10677 10663 10648 10632 10618 10597 10582 10571 10556 10539 10535 10525 10515 10505 10495 10486 10477 10468 10462 10459 10458 10458 10465 10463 10488 10491 10513 10524 10571 10591 10623 10646 10668
10772 10765 10758 10751 10745 10739 10732 10722 10711 10700 10686 10671 10656 10644 10631 10611 10595 10583 10570 10557 10546 10530 10518 10514 10505 10495 10484 10475 10465 10455 10449 10445 10443 10444 10450 10444 10470 10476 10501 10500 10531 10558 10587 10615 10638
10762 10754 10748 10740 10733 10727 10720 10710 10700 10686 10673 10662 10650 10635 10622 10605 10591 10576 10560 10545 10532 10524 10508 10498 10494 10483 10473 10463 10455 10447 10440 10434 10432 10435 10435 10444 10448 10460 10477 10478 10507 10537 10556 10592 10618
10750 10744 10736 10728 10722 10714 10706 10697 10688 10675 10663 10652 10640 10624 10610 10596 10581 10561 10549 10538 10523 10518 10508 10500 10487 10476 10465 10458 10447 10439 10431 10426 10424 10423 10422 10429 10430 10444 10457 10460 10487 10516 10539 10581 10613
10739 10733 10726 10717 10708 10700 10692 10683 10675 10666 10655 10643 10630 10616 10601 10586 10572 10559 10542 10532 10516 10506 10499 10493 10482 10470 10459 10450 10441 10431 10424 10419 10416 10414 10414 10423 10430 10441 10444 10457 10474 10496 10515 10564 10602
10727 10722 10715 10706 10697 10688 10680 10670 10663 10654 10642 10629 10619 10608 10595 10577 10566 10552 10538 10523 10512 10502 10493 10484 10475 10466 10455 10447 10437 10428 10419 10415 10411 10406 10409 10417 10421 10427 10436 10448 10466 10486 10496 10541 10582
10717 10710 10704 10698 10686 10676 10670 10659 10649 10641 10631 10620 10608 10597 10583 10570 10554 10542 10532 10517 10504 10495 10489 10480 10471 10464 10452 10443 10434 10425 10416 10411 10406 10403 10407 10414 10419 10423 10429 10438 10452 10472 10488 10526 10571
10703 10699 10694 10685 10675 10666 10657 10653 10640 10627 10617 10607 10598 10584 10572 10563 10549 10534 10521 10511 10502 10492 10483 10474 10465 10457 10449 10439 10432 10423 10416 10409 10406 10407 10406 10408 10409 10412 10424 10442 10453 10468 10478 10513 10556
10689 10679 10680 10677 10668 10654 10644 10636 10629 10617 10607 10595 10584 10577 10563 10551 10544 10530 10517 10504 10494 10485 10478 10470 10463 10451 10441 10436 10430 10423 10414 10408 10406 10406 10407 10404 10407 10412 10421 10434 10445 10463 10480 10514 10544
10688 10675 10657 10658 10658 10649 10639 10626 10616 10604 10596 10581 10573 10565 10554 10541 10529 10524 10511 10499 10489 10480 10472 10464 10459 10451 10443 10436 10430 10425 10416 10408 10404 10405 10404 10408 10410 10409 10417 10428 10438 10454 10473 10503 10532
10678 10668 10658 10649 10640 10638 10630 10620 10610 10599 10585 10576 10560 10552 10547 10537 10529 10518 10507 10494 10485 10477 10468 10461 10454 10447 10440 10432 10428 10426 10417 10410 10405 10405 10405 10407 10411 10414 10418 10427 10439 10451 10470 10491 10518
10665 10662 10643 10636 10634 10626 10618 10604 10598 10584 10581 10570 10555 10540 10535 10528 10519 10515 10506 10495 10485 10475 10465 10458 10452 10442 10436 10430 10426 10424 10415 10410 10407 10404 10404 10403 10406 10415 10420 10426 10433 10446 10464 10483 10505
10646 10647 10640 10621 10613 10611 10605 10593 10582 10578 10557 10559 10552 10539 10529 10521 10511 10503 10496 10489 10480 10471 10464 10457 10448 10440 10433 10426 10423 10421 10414 10408 10405 10404 10404 10404 10404 10411 10418 10423 10430 10441 10459 10479 10503